Location: Guayaquil
(2.1667°S, 79.9000°W)
Time: 04:09:39
(UTC-05:00)

Envisat - Visible Passes

Search period start: 22 July 2018 00:00
Search period end: 01 August 2018 00:00
Orbit: 764 x 766 km, 98.2° (Epoch: 21 July)

Date Brightness Start Highest point End Pass type
(mag) Time Alt. Az. Time Alt. Az. Time Alt. Az.
22 Jul 3.9 20:25:12 34° SSW 20:26:48 46° WSW 20:31:38 10° NNW visible
23 Jul 2.9 19:48:01 33° SE 19:50:10 62° ENE 19:55:10 10° N visible
24 Jul 4.2 19:10:50 14° ESE 19:13:32 22° ENE 19:17:20 10° NNE visible
24 Jul 5.0 20:51:02 20° WSW 20:52:16 22° WSW 20:56:08 10° NW visible
25 Jul 3.3 20:13:51 38° SSW 20:15:40 63° WSW 20:20:41 10° NNW visible
26 Jul 3.3 19:36:39 27° SE 19:39:03 45° ENE 19:43:50 10° N visible
26 Jul 5.9 21:17:38 10° WSW 21:17:43 10° WSW 21:17:48 10° WSW visible
27 Jul 4.6 18:59:28 10° ESE 19:02:24 16° ENE 19:05:23 10° NE visible
27 Jul 4.6 20:39:40 25° SW 20:41:09 30° WSW 20:45:32 10° NW visible
28 Jul 2.9 20:02:29 37° S 20:04:32 86° WSW 20:09:36 10° NNW visible
29 Jul 3.7 19:25:18 21° SE 19:27:54 33° ENE 19:32:24 10° NNE visible
29 Jul 5.6 21:05:30 13° WSW 21:06:36 14° WSW 21:09:15 10° WNW visible
30 Jul 4.8 18:49:44 10° E 18:51:16 11° ENE 18:52:46 10° ENE visible
30 Jul 4.1 20:28:19 31° SW 20:30:01 40° WSW 20:34:45 10° NNW visible
31 Jul 2.9 19:51:08 33° SSE 19:53:24 70° ENE 19:58:26 10° N visible
